Location: Taupo
(38.6830°S, 176.0830°E)
Time: 02:38:13
(UTC+12:00)

Cosmos 2219 Rocket - Pass Details

Date: 24 January 2019
Orbit: 828 x 847 km, 71.0° (Epoch: 14 April)

Event Time Altitude Azimuth Distance (km) Brightness Sun altitude
Exits shadow 23:35:56 75° 64° (ENE) 882 2.0 -26.5°
Maximum altitude 23:35:59 75° 70° (ENE) 882 2.1 -26.5°
Drops below altitude 10° 23:41:43 10° 154° (SSE) 2,497 5.1 -27.0°
Sets 23:44:11 0° 155° (SSE) 3,440 5.9 -27.2°
